This demonstration page uses our WeatherBlox Daily Observations layout. Learn more.

Hourly Observations for January 9, 2019

Temp ( °F °C ) Dew Point ( °F °C ) Humidity (%) Winds ( mph kmh ) Pressure ( in mb ) Visibility ( mi km ) Precip ( " mm )
12:15 am 00:15 Clear 24 -4.7 19 -7.1 84 84 WNW 6 9 30.65 1038 10 16.09344 0 0
12:35 am 00:35 Clear 25 -4 19 -7 80 80 WNW 7 11 30.65 1038 10 16.09344 0 0
12:55 am 00:55 Clear 24 -4.7 18 -7.7 80 80 WNW 7 11 30.65 1038 10 16.09344 0 0
1:15 am 01:15 Clear 23 -4.8 19 -7.5 82 82 WNW 7 11 30.65 1038 10 16.09344 0 0
1:35 am 01:35 Clear 24 -4.5 19 -7.2 82 82 W 8 13 30.68 1039 10 16.09344 0 0
1:55 am 01:55 Clear 24 -4.3 19 -7.1 81 81 WNW 7 11 30.65 1038 10 16.09344 0 0
2:15 am 02:15 Clear 24 -4.4 19 -7.3 80 80 WNW 9 15 30.68 1039 10 16.09344 0 0
2:35 am 02:35 Clear 24 -4.3 19 -7.3 80 80 WNW 7 11 30.68 1039 10 16.09344 0 0
2:55 am 02:55 Clear 23 -5.1 18 -7.9 81 81 WNW 6 9 30.68 1039 10 16.09344 0 0
3:15 am 03:15 Clear 24 -4.7 19 -7.5 81 81 WNW 7 11 30.68 1039 10 16.09344 0 0
3:35 am 03:35 Clear 23 -5.1 18 -7.7 82 82 WNW 7 11 30.68 1039 10 16.09344 0 0
3:55 am 03:55 Clear 23 -5 18 -7.7 82 82 WNW 7 11 30.65 1038 10 16.09344 0 0
4:15 am 04:15 Clear 23 -5 18 -7.8 81 81 WNW 5 7 30.65 1038 10 16.09344 0 0
4:35 am 04:35 Clear 22 -5.5 17 -8.1 82 82 NW 3 6 30.65 1038 10 16.09344 0 0
4:55 am 04:55 Clear 21 -5.9 17 -8.2 84 84 NW 3 6 30.65 1038 10 16.09344 0 0
5:15 am 05:15 Clear 21 -6.2 17 -8.5 84 84 W 5 7 30.65 1038 10 16.09344 0 0
5:35 am 05:35 Clear 21 -6.2 17 -8.5 84 84 Calm 30.65 1038 10 16.09344 0 0
5:55 am 05:55 Clear 20 -6.5 17 -8.5 86 86 Calm 30.65 1038 10 16.09344 0 0
6:15 am 06:15 Clear 20 -6.6 17 -8.6 86 86 W 3 6 30.65 1038 10 16.09344 0 0
6:35 am 06:35 Clear 20 -6.6 17 -8.6 86 86 Calm 30.65 1038 10 16.09344 0 0
6:55 am 06:55 Clear 19 -7 16 -9 86 86 Calm 30.68 1039 10 16.09344 0 0
7:15 am 07:15 Clear 19 -7 16 -8.9 86 86 Calm 30.68 1039 10 16.09344 0 0
7:35 am 07:35 Clear 19 -7 17 -8.6 89 89 Calm 30.68 1039 10 16.09344 0 0
7:55 am 07:55 Clear 20 -6.8 17 -8.3 89 89 Calm 30.68 1039 10 16.09344 0 0
8:15 am 08:15 Sunny 20 -6.5 18 -7.9 90 90 Calm 30.65 1038 10 16.09344 0 0
8:35 am 08:35 Sunny 21 -6.2 18 -8 87 87 Calm 30.65 1038 10 16.09344 0 0
8:55 am 08:55 Sunny 22 -5.5 19 -7.5 86 86 Calm 30.65 1038 10 16.09344 0 0
9:15 am 09:15 Sunny 24 -4.6 19 -7.1 83 83 Calm 30.65 1038 10 16.09344 0 0
9:35 am 09:35 Sunny 25 -4 20 -6.9 80 80 WNW 3 6 30.68 1039 10 16.09344 0 0
9:55 am 09:55 Sunny 27 -3 21 -6.1 79 79 Calm 30.65 1038 10 16.09344 0 0
10:15 am 10:15 Sunny 28 -2.3 21 -6.1 75 75 Calm 30.65 1038 10 16.09344 0 0
10:35 am 10:35 Sunny 29 -1.4 20 -6.9 67 67 Calm 30.65 1038 10 16.09344 0 0
10:55 am 10:55 Sunny 30 -1 18 -7.7 61 61 Calm 30.65 1038 10 16.09344 0 0
11:15 am 11:15 Sunny 31 -0.5 17 -8.3 56 56 E 5 7 30.59 1036 10 16.09344 0 0
11:35 am 11:35 Sunny 32 -0.2 17 -8.2 55 55 E 6 9 30.59 1036 10 16.09344 0 0
11:55 am 11:55 Sunny 32 0 19 -7.5 57 57 ESE 6 9 30.56 1035 10 16.09344 0 0
12:15 pm 12:15 Sunny 32 0.2 19 -7.5 57 57 ESE 6 9 30.56 1035 10 16.09344 0 0
12:35 pm 12:35 Sunny 33 0.4 19 -7 58 58 SE 6 9 30.53 1034 10 16.09344 0 0
12:55 pm 12:55 Sunny 33 0.7 20 -6.4 59 59 SE 7 11 30.53 1034 10 16.09344 0 0
1:15 pm 13:15 Sunny 34 0.9 20 -6.7 57 57 ESE 8 13 30.5 1033 10 16.09344 0 0
1:35 pm 13:35 Sunny 34 1.2 21 -6.1 59 59 SE 9 15 30.48 1032 10 16.09344 0 0
1:55 pm 13:55 Sunny 35 1.6 21 -6.2 57 57 SE 10 17 30.48 1032 10 16.09344 0 0
2:15 pm 14:15 Sunny 34 1.2 21 -6 59 59 SE 9 15 30.48 1032 10 16.09344 0 0
2:35 pm 14:35 Sunny 34 1.2 22 -5.8 60 60 SE 12 19 30.48 1032 10 16.09344 0 0
2:55 pm 14:55 Sunny 34 1 22 -5.7 61 61 SE 12 19 30.5 1033 10 16.09344 0 0
3:15 pm 15:15 Sunny 34 1.1 22 -5.4 62 62 SE 10 17 30.45 1031 10 16.09344 0 0
3:35 pm 15:35 Sunny 34 1.2 23 -5.1 63 63 SE 12 19 30.45 1031 10 16.09344 0 0
3:55 pm 15:55 Sunny 34 1.1 23 -5 64 64 ESE 10 17 30.45 1031 10 16.09344 0 0
4:15 pm 16:15 Sunny 34 1.2 24 -4.4 67 67 ESE 9 15 30.45 1031 10 16.09344 0 0
4:35 pm 16:35 Sunny 34 1 24 -4.5 67 67 SE 10 17 30.45 1031 10 16.09344 0 0
4:55 pm 16:55 Sunny 34 1 24 -4.5 67 67 ESE 9 15 30.42 1030 10 16.09344 0 0
5:15 pm 17:15 Sunny 33 0.6 24 -4.4 70 70 SE 8 13 30.42 1030 10 16.09344 0 0
5:35 pm 17:35 Clear 33 0.3 24 -4.4 71 71 SE 9 15 30.45 1031 10 16.09344 0 0
5:55 pm 17:55 Clear 32 0 24 -4.5 72 72 SE 9 15 30.45 1031 10 16.09344 0 0
6:15 pm 18:15 Clear 32 -0.2 24 -4.5 73 73 SE 9 15 30.45 1031 10 16.09344 0 0
6:35 pm 18:35 Clear 31 -0.3 24 -4.5 74 74 SE 9 15 30.42 1030 10 16.09344 0 0
6:55 pm 18:55 Clear 31 -0.5 24 -4.5 75 75 SE 10 17 30.42 1030 10 16.09344 0 0
7:15 pm 19:15 Clear 31 -0.6 23 -5 72 72 SE 9 15 30.42 1030 10 16.09344 0 0
7:35 pm 19:35 Clear 31 -0.5 23 -5 72 72 SE 9 15 30.42 1030 10 16.09344 0 0
7:55 pm 19:55 Clear 30 -1 24 -4.7 76 76 SE 8 13 30.45 1031 10 16.09344 0 0
8:15 pm 20:15 Clear 30 -1 24 -4.7 76 76 ESE 8 13 30.42 1030 10 16.09344 0 0
8:35 pm 20:35 Clear 30 -1.2 23 -4.8 77 77 SE 8 13 30.42 1030 10 16.09344 0 0
8:55 pm 20:55 Clear 29 -1.5 23 -4.8 78 78 SE 10 17 30.42 1030 10 16.09344 0 0
9:15 pm 21:15 Clear 29 -1.6 23 -5 78 78 SE 8 13 30.42 1030 10 16.09344 0 0
9:35 pm 21:35 Clear 29 -1.5 23 -5.2 76 76 SE 9 15 30.42 1030 10 16.09344 0 0
9:55 pm 21:55 Clear 29 -1.6 22 -5.5 75 75 SE 9 15 30.39 1029 10 16.09344 0 0
10:15 pm 22:15 Clear 29 -1.7 22 -5.7 74 74 SE 8 13 30.39 1029 10 16.09344 0 0
10:35 pm 22:35 Clear 29 -1.7 21 -6 73 73 SE 8 13 30.39 1029 10 16.09344 0 0
10:55 pm 22:55 Clear 29 -1.7 21 -6.1 72 72 SE 8 13 30.39 1029 10 16.09344 0 0
11:15 pm 23:15 Clear 28 -2 21 -6.1 74 74 ESE 5 7 30.39 1029 10 16.09344 0 0
11:35 pm 23:35 Clear 28 -2.3 21 -6.2 75 75 ESE 6 9 30.36 1028 10 16.09344 0 0
11:55 pm 23:55 Clear 27 -2.6 21 -6.1 77 77 ESE 8 13 30.36 1028 10 16.09344 0 0

Powered by AerisWeather